GW7749 Weather Reports


Display with metric or nautical units.
time (UTC)temp
F
wind
direction
speed
MPH
gust
MPH
rain 1hr
in
rain 24hr
in
rain mn
in
humidity
%
barometer
mb
20260906175741 87 193 6.0 6.0 0.00 0.00 0.00 71 1016.3
20260906175237 86 40 2.0 2.0 0.00 0.00 0.00 74 1016.3
20260906174735 86 180 3.0 3.0 0.00 0.00 0.00 75 1016.7
20260906174235 86 216 4.0 5.0 0.00 0.00 0.00 76 1016.7
20260906173730 86 90 2.0 2.0 0.00 0.00 0.00 77 1016.7
20260906173226 85 295 2.0 2.0 0.00 0.00 0.00 80 1016.7
20260906172725 84 210 0.0 0.0 0.00 0.00 0.00 79 1016.7
20260906172220 83 330 2.0 2.0 0.00 0.00 0.00 80 1016.7
20260906171721 83 36 4.0 4.0 0.00 0.00 0.00 81 1016.7
20260906171216 83 198 2.0 2.0 0.00 0.00 0.00 82 1017.4
20260906170712 82 186 2.0 2.0 0.00 0.00 0.00 82 1017.0
20260906170212 82 204 2.0 2.0 0.00 0.00 0.00 84 1017.0
20260906165708 82 173 4.0 4.0 0.00 0.00 0.00 83 1017.4
20260906165203 82 210 4.0 4.0 0.00 0.00 0.00 84 1017.4
20260906164702 82 222 2.0 2.0 0.00 0.00 0.00 85 1017.4
20260906164158 82 198 3.0 3.0 0.00 0.00 0.00 84 1017.4
20260906163654 81 210 0.0 0.0 0.00 0.00 0.00 85 1017.4
20260906163150 81 216 3.0 3.0 0.00 0.00 0.00 86 1017.7
20260906162647 81 173 4.0 4.0 0.00 0.00 0.00 83 1017.4
20260906162146 81 178 2.0 2.0 0.00 0.00 0.00 83 1017.7
20260906161641 80 156 2.0 2.0 0.00 0.00 0.00 84 1017.4
20260906161140 80 240 2.0 2.0 0.00 0.00 0.00 88 1017.7
20260906160639 80 216 2.0 2.0 0.00 0.00 0.00 87 1017.7
20260906160138 79 252 2.0 2.0 0.00 0.00 0.00 87 1017.7
20260906155636 80 252 6.0 6.0 0.00 0.00 0.00 88 1018.0
20260906155132 80 228 4.0 4.0 0.00 0.00 0.00 87 1017.4
20260906154627 80 149 4.0 4.0 0.00 0.00 0.00 85 1017.4
20260906154126 80 180 4.0 4.0 0.00 0.00 0.00 85 1017.4
20260906153625 80 135 4.0 4.0 0.00 0.00 0.00 85 1017.4
20260906153120 80 155 7.0 7.0 0.00 0.00 0.00 85 1017.0
20260906152615 80 155 2.0 2.0 0.00 0.00 0.00 85 1017.0
20260906152115 80 168 2.0 2.0 0.00 0.00 0.00 87 1017.0
20260906151610 80 144 4.0 4.0 0.00 0.00 0.00 86 1017.0
20260906151106 80 204 4.0 4.0 0.00 0.00 0.00 86 1017.0
20260906150601 80 198 2.0 2.0 0.00 0.00 0.00 87 1017.4
20260906150056 80 154 4.0 4.0 0.00 0.00 0.00 88 1017.4
20260906145554 79 150 5.0 5.0 0.00 0.00 0.00 87 1017.0
20260906145050 79 252 0.0 0.0 0.00 0.00 0.00 88 1017.0
20260906144544 79 174 2.0 2.0 0.00 0.00 0.00 88 1017.0
20260906144039 79 174 2.0 2.0 0.00 0.00 0.00 89 1017.0
20260906143534 79 66 2.0 2.0 0.00 0.00 0.00 89 1017.0
20260906143032 79 89 2.0 2.0 0.00 0.00 0.00 89 1017.0
20260906142530 79 54 2.0 2.0 0.00 0.00 0.00 88 1017.0
20260906142026 79 192 0.0 0.0 0.00 0.00 0.00 88 1017.0
20260906141525 78 78 2.0 2.0 0.00 0.00 0.00 88 1017.4
20260906141021 78 234 0.0 0.0 0.00 0.00 0.00 88 1017.4
20260906140520 78 138 0.0 0.0 0.00 0.00 0.00 90 1017.4
20260906140020 78 228 2.0 2.0 0.00 0.00 0.00 89 1017.4
20260906135517 78 100 2.0 2.0 0.00 0.00 0.00 88 1017.4
20260906135013 78 234 6.0 6.0 0.00 0.00 0.00 86 1017.4
20260906134508 78 228 4.0 4.0 0.00 0.00 0.00 88 1017.4
20260906134008 78 198 2.0 2.0 0.00 0.00 0.00 90 1017.4
20260906133504 79 169 2.0 2.0 0.00 0.00 0.00 88 1017.4
20260906132959 79 234 4.0 4.0 0.00 0.00 0.00 87 1017.4
20260906132454 79 71 3.0 3.0 0.00 0.00 0.00 87 1017.4
20260906131949 78 282 0.0 0.0 0.00 0.00 0.00 88 1017.4
20260906131445 78 198 3.0 3.0 0.00 0.00 0.00 91 1017.0
20260906130940 78 192 4.0 4.0 0.00 0.00 0.00 92 1017.0
20260906130439 78 66 0.0 0.0 0.00 0.00 0.00 92 1017.4
20260906125934 77 309 0.0 0.0 0.00 0.00 0.00 93 1017.0
20260906125432 77 82 2.0 2.0 0.00 0.00 0.00 93 1017.4
20260906124931 76 61 0.0 0.0 0.00 0.00 0.00 94 1017.0
20260906124428 76 83 2.0 2.0 0.00 0.00 0.00 94 1017.0
20260906123927 76 82 2.0 2.0 0.00 0.00 0.00 95 1017.0
20260906123426 76 82 0.0 0.0 0.00 0.00 0.00 95 1017.0
20260906122921 76 72 0.0 0.0 0.00 0.00 0.00 95 1016.7
20260906122421 76 72 2.0 2.0 0.00 0.00 0.00 96 1017.0
20260906121919 75 54 2.0 2.0 0.00 0.00 0.00 96 1016.7
20260906121414 75 348 2.0 2.0 0.00 0.00 0.00 96 1017.0
20260906120911 75 340 0.0 0.0 0.00 0.00 0.00 96 1017.0
20260906120406 75 324 2.0 2.0 0.00 0.00 0.00 96 1016.7
20260906115902 75 84 0.0 0.0 0.00 0.00 0.00 96 1016.7
20260906115357 75 84 0.0 0.0 0.00 0.00 0.00 96 1016.7
20260906114856 75 84 0.0 0.0 0.00 0.00 0.00 95 1016.7
20260906114352 75 84 0.0 0.0 0.00 0.00 0.00 95 1016.3
20260906113847 75 77 2.0 2.0 0.00 0.00 0.00 95 1016.7
20260906113346 75 78 4.0 4.0 0.00 0.00 0.00 95 1016.3
20260906112842 75 76 4.0 4.0 0.00 0.00 0.00 95 1016.7
20260906112338 75 57 2.0 2.0 0.00 0.00 0.00 95 1016.3
20260906111838 75 57 0.0 0.0 0.00 0.00 0.00 95 1016.7
20260906111337 75 42 3.0 3.0 0.00 0.00 0.00 95 1016.3
20260906110832 75 54 2.0 2.0 0.00 0.00 0.00 95 1016.3
20260906110328 75 45 2.0 2.0 0.00 0.00 0.00 95 1016.3
20260906105827 75 66 0.0 0.0 0.00 0.00 0.00 95 1016.3
20260906105323 75 66 2.0 2.0 0.00 0.00 0.00 95 1016.3
20260906104819 74 90 2.0 2.0 0.00 0.00 0.00 97 1016.3
20260906104317 74 89 2.0 2.0 0.00 0.00 0.00 98 1016.3
20260906103816 74 77 0.0 0.0 0.00 0.00 0.00 98 1016.0
20260906103315 73 77 0.0 0.0 0.00 0.00 0.00 97 1015.7
20260906102811 74 77 0.0 0.0 0.00 0.00 0.00 97 1016.0
20260906102309 74 77 0.0 0.0 0.00 0.00 0.00 96 1016.0
20260906101805 74 77 0.0 0.0 0.00 0.00 0.00 96 1016.0
20260906101300 75 77 0.0 0.0 0.00 0.00 0.00 96 1015.7
20260906100755 75 77 0.0 0.0 0.00 0.00 0.00 97 1015.7
20260906100254 74 77 0.0 0.0 0.00 0.00 0.00 97 1016.0
20260906095750 74 77 2.0 2.0 0.00 0.00 0.00 98 1016.0
20260906095245 73 72 2.0 2.0 0.00 0.00 0.00 98 1015.7
20260906094744 72 72 0.0 0.0 0.00 0.00 0.00 98 1015.7
20260906094239 72 72 0.0 0.0 0.00 0.00 0.00 97 1015.7
20260906093736 73 72 0.0 0.0 0.00 0.00 0.00 96 1016.0
20260906093231 73 72 0.0 0.0 0.00 0.00 0.00 96 1016.0
20260906092727 74 72 0.0 0.0 0.00 0.00 0.00 94 1016.0
20260906092226 75 72 0.0 0.0 0.00 0.00 0.00 95 1015.7
20260906091722 75 72 0.0 0.0 0.00 0.00 0.00 94 1016.0
20260906091218 76 72 0.0 0.0 0.00 0.00 0.00 95 1016.0
20260906090715 76 72 2.0 2.0 0.00 0.00 0.00 95 1016.0
20260906090213 76 72 0.0 0.0 0.00 0.00 0.00 94 1016.0
20260906085713 76 72 0.0 0.0 0.00 0.00 0.00 94 1016.0
20260906085211 76 72 2.0 2.0 0.00 0.00 0.00 94 1016.0
20260906084707 76 72 2.0 2.0 0.00 0.00 0.00 94 1016.0
20260906084206 77 72 2.0 2.0 0.00 0.00 0.00 94 1016.0
20260906083702 77 72 2.0 2.0 0.00 0.00 0.00 93 1016.0
20260906083157 76 54 2.0 2.0 0.00 0.00 0.00 94 1015.7
20260906082652 76 126 0.0 0.0 0.00 0.00 0.00 94 1015.7
20260906082147 76 136 2.0 2.0 0.00 0.00 0.00 94 1015.7
20260906081643 76 136 0.0 0.0 0.00 0.00 0.00 94 1015.7
20260906081138 76 210 0.0 0.0 0.00 0.00 0.00 95 1015.7
20260906080635 75 210 0.0 0.0 0.00 0.00 0.00 96 1015.2
20260906080131 75 210 4.0 4.0 0.00 0.00 0.00 96 1015.7
20260906075630 74 294 0.0 0.0 0.00 0.00 0.00 95 1015.7
20260906075125 76 335 0.0 0.0 0.00 0.00 0.00 94 1015.7
20260906074620 77 347 0.0 0.0 0.00 0.00 0.00 94 1015.7
20260906074119 77 347 0.0 0.0 0.00 0.00 0.00 94 1015.7
20260906073614 77 330 0.0 0.0 0.00 0.00 0.00 93 1015.2
20260906073110 77 60 0.0 0.0 0.00 0.00 0.00 93 1015.2
20260906072604 77 48 0.0 0.0 0.00 0.00 0.00 94 1015.7
20260906072101 76 48 0.0 0.0 0.00 0.00 0.00 94 1015.7
20260906071557 76 270 4.0 4.0 0.00 0.00 0.00 93 1015.7
20260906071057 76 204 0.0 0.0 0.00 0.00 0.00 94 1015.7
20260906070554 76 264 0.0 0.0 0.00 0.00 0.00 93 1015.7
20260906070049 77 264 0.0 0.0 0.00 0.00 0.00 93 1015.7
20260906065548 77 264 0.0 0.0 0.00 0.00 0.00 93 1015.7
20260906065044 77 264 0.0 0.0 0.00 0.00 0.00 93 1016.0
20260906064540 77 264 2.0 2.0 0.00 0.00 0.00 93 1015.7
20260906064034 77 264 0.0 0.0 0.00 0.00 0.00 92 1016.0
20260906063530 79 66 0.0 0.0 0.00 0.00 0.00 90 1016.0
20260906063026 79 315 2.0 2.0 0.00 0.00 0.00 90 1015.7
20260906062521 79 246 0.0 0.0 0.00 0.00 0.00 90 1015.7
20260906062015 79 246 2.0 2.0 0.00 0.00 0.00 89 1015.7
20260906061512 79 72 2.0 2.0 0.00 0.00 0.00 89 1015.7
20260906061010 79 228 2.0 2.0 0.00 0.00 0.00 89 1015.7
20260906060507 80 192 2.0 2.0 0.00 0.00 0.00 88 1015.7
20260906060004 80 314 2.0 2.0 0.00 0.00 0.00 89 1015.7
20260906055459 80 170 2.0 2.0 0.00 0.00 0.00 89 1015.7
20260906054955 80 198 2.0 2.0 0.00 0.00 0.00 89 1015.7
20260906054455 80 163 0.0 0.0 0.00 0.00 0.00 89 1015.7
20260906053950 80 147 2.0 2.0 0.00 0.00 0.00 89 1015.7
20260906053446 80 76 2.0 2.0 0.00 0.00 0.00 88 1016.0
20260906052942 80 338 2.0 2.0 0.00 0.00 0.00 88 1015.7
20260906052438 80 66 2.0 2.0 0.00 0.00 0.00 89 1015.7
20260906051934 80 50 2.0 2.0 0.00 0.00 0.00 89 1015.7
20260906051430 80 60 2.0 2.0 0.00 0.00 0.00 90 1015.7
20260906050925 80 72 2.0 2.0 0.00 0.00 0.00 89 1016.0
20260906050425 80 66 2.0 2.0 0.00 0.00 0.00 89 1016.0
20260906045924 79 69 4.0 4.0 0.00 0.00 0.00 90 1016.0
20260906045423 79 62 2.0 2.0 0.00 0.00 0.00 90 1016.0
20260906044920 79 77 0.0 0.0 0.00 0.00 0.00 91 1016.0
20260906044420 78 66 0.0 0.0 0.00 0.00 0.00 91 1016.3
20260906043915 78 75 2.0 2.0 0.00 0.00 0.00 91 1016.3
20260906043411 78 6 0.0 0.0 0.00 0.00 0.00 91 1016.3
20260906042906 78 6 2.0 2.0 0.00 0.00 0.00 91 1016.3
20260906042406 79 353 0.0 0.0 0.00 0.00 0.00 91 1016.3
20260906041901 79 312 2.0 2.0 0.00 0.00 0.00 90 1016.0
20260906041357 79 324 2.0 2.0 0.00 0.00 0.00 90 1016.3
20260906040856 79 359 2.0 2.0 0.00 0.00 0.00 90 1016.3
20260906040352 79 18 2.0 2.0 0.00 0.00 0.00 90 1016.0
20260906035847 79 300 0.0 0.0 0.00 0.00 0.00 89 1016.0
20260906035342 79 1 0.0 0.0 0.00 0.00 0.00 89 1016.3
20260906034838 79 336 0.0 0.0 0.00 0.00 0.00 89 1016.3
20260906034333 79 313 2.0 2.0 0.00 0.00 0.00 88 1016.0
20260906033829 79 54 2.0 2.0 0.00 0.00 0.00 88 1016.0
20260906033328 80 84 0.0 0.0 0.00 0.00 0.00 88 1016.0
20260906032824 80 85 2.0 2.0 0.00 0.00 0.00 88 1016.0
20260906032320 80 19 0.0 0.0 0.00 0.00 0.00 88 1016.0
20260906031815 80 12 2.0 2.0 0.00 0.00 0.00 88 1015.7
20260906031310 80 331 2.0 2.0 0.00 0.00 0.00 88 1015.7
20260906030810 80 54 2.0 2.0 0.00 0.00 0.00 88 1015.7
20260906030305 80 1 0.0 0.0 0.00 0.00 0.00 88 1015.2
20260906025805 80 1 0.0 0.0 0.00 0.00 0.00 87 1015.2
20260906025259 80 29 2.0 2.0 0.00 0.00 0.00 87 1015.2
20260906024758 80 349 0.0 0.0 0.00 0.00 0.00 87 1015.2
20260906024257 80 24 2.0 2.0 0.00 0.00 0.00 87 1014.9
20260906023753 80 28 2.0 2.0 0.00 0.00 0.00 87 1015.2
20260906023248 80 42 2.0 2.0 0.00 0.00 0.00 87 1015.2
20260906022744 80 39 2.0 2.0 0.00 0.00 0.00 87 1014.9
20260906022239 80 32 2.0 2.0 0.00 0.00 0.00 87 1015.2
20260906021735 80 340 2.0 2.0 0.00 0.00 0.00 87 1014.9
20260906021234 80 336 2.0 2.0 0.00 0.00 0.00 87 1014.9
20260906020729 80 320 0.0 0.0 0.00 0.00 0.00 86 1014.9
20260906020223 80 5 0.0 0.0 0.00 0.00 0.00 86 1014.9
20260906015723 81 1 2.0 2.0 0.00 0.00 0.00 85 1014.6
20260906015222 81 1 0.0 0.0 0.00 0.00 0.00 85 1014.6
20260906014716 81 342 2.0 2.0 0.00 0.00 0.00 85 1014.6
20260906014212 81 315 0.0 0.0 0.00 0.00 0.00 84 1014.2
20260906013703 81 315 0.0 0.0 0.00 0.00 0.00 84 1014.6
20260906013203 82 342 2.0 2.0 0.00 0.00 0.00 83 1014.6
20260906012658 82 342 2.0 2.0 0.00 0.00 0.00 83 1014.6
20260906012157 82 302 2.0 2.0 0.00 0.00 0.00 83 1014.2
20260906011653 82 6 2.0 2.0 0.00 0.00 0.00 83 1014.2
20260906011148 83 345 0.0 0.0 0.00 0.00 0.00 82 1014.2
20260906010643 83 343 0.0 0.0 0.00 0.00 0.00 81 1014.2
20260906010139 83 343 0.0 0.0 0.00 0.00 0.00 80 1014.2
20260906005639 84 348 0.0 0.0 0.00 0.00 0.00 79 1013.9
20260906005138 84 69 2.0 2.0 0.00 0.00 0.00 78 1014.2
20260906004637 85 69 2.0 2.0 0.00 0.00 0.00 77 1014.2
20260906004132 85 90 0.0 0.0 0.00 0.00 0.00 76 1013.9
20260906003627 85 86 2.0 2.0 0.00 0.00 0.00 75 1013.9
20260906003124 86 79 2.0 2.0 0.00 0.00 0.00 74 1013.9
20260906002618 87 83 2.0 2.0 0.00 0.00 0.00 73 1013.9
20260906002114 87 73 3.0 3.0 0.00 0.00 0.00 72 1013.9
20260906001609 87 64 4.0 4.0 0.00 0.00 0.00 71 1013.9
20260906001108 88 76 4.0 5.0 0.00 0.00 0.00 70 1013.9
20260906000605 88 84 5.0 6.0 0.00 0.00 0.00 69 1013.9
20260906000059 89 76 5.0 5.0 0.00 0.00 0.00 69 1013.9
20260905235559 89 100 5.0 5.0 0.00 0.00 0.00 68 1013.9
20260905235054 89 69 5.0 5.0 0.00 0.00 0.00 68 1013.9
20260905234549 89 67 4.0 4.0 0.00 0.00 0.00 66 1014.2
20260905234045 88 68 4.0 5.0 0.00 0.00 0.00 66 1013.9
20260905233544 88 84 3.0 3.0 0.00 0.00 0.00 66 1013.9
20260905233044 88 74 4.0 4.0 0.00 0.00 0.00 66 1014.2
20260905232540 89 78 6.0 6.0 0.00 0.00 0.00 63 1013.9
20260905232035 89 84 4.0 5.0 0.00 0.00 0.00 63 1013.9
20260905231530 89 39 2.0 2.0 0.00 0.00 0.00 63 1013.9
20260905231027 89 198 0.0 0.0 0.00 0.00 0.00 61 1013.9
20260905230526 90 84 5.0 6.0 0.00 0.00 0.00 61 1013.9
20260905230024 90 54 4.0 4.0 0.00 0.00 0.00 59 1013.9
20260905225519 90 85 4.0 4.0 0.00 0.00 0.00 61 1013.9
20260905225014 90 224 2.0 2.0 0.00 0.00 0.00 61 1013.9
20260905224509 90 117 2.0 2.0 0.00 0.00 0.00 63 1013.9
20260905224008 90 170 2.0 2.0 0.00 0.00 0.00 61 1013.5
20260905223506 90 114 7.0 8.0 0.00 0.00 0.00 60 1013.5
20260905223001 90 268 2.0 2.0 0.00 0.00 0.00 58 1013.5
20260905222501 89 64 6.0 6.0 0.00 0.00 0.00 61 1013.5
20260905221956 89 192 0.0 0.0 0.00 0.00 0.00 64 1013.5
20260905221453 89 64 2.0 2.0 0.00 0.00 0.00 62 1013.2
20260905220949 90 75 7.0 7.0 0.00 0.00 0.00 64 1013.2
20260905220445 90 6 2.0 2.0 0.00 0.00 0.00 63 1013.2
20260905215944 91 72 9.0 9.0 0.00 0.00 0.00 61 1013.5
20260905215440 90 60 4.0 5.0 0.00 0.00 0.00 61 1013.2
20260905214936 90 39 6.0 7.0 0.00 0.00 0.00 61 1013.5
20260905214432 90 179 5.0 5.0 0.00 0.00 0.00 61 1013.2
20260905213931 90 270 2.0 2.0 0.00 0.00 0.00 60 1013.5
20260905213428 89 158 4.0 4.0 0.00 0.00 0.00 62 1013.2
20260905212923 89 60 3.0 3.0 0.00 0.00 0.00 61 1013.5
20260905212418 89 29 4.0 4.0 0.00 0.00 0.00 63 1013.5
20260905211917 89 207 4.0 4.0 0.00 0.00 0.00 62 1013.5
20260905211413 89 207 4.0 4.0 0.00 0.00 0.00 61 1013.5
20260905210909 89 80 5.0 6.0 0.00 0.00 0.00 63 1013.9
20260905210409 89 157 5.0 5.0 0.00 0.00 0.00 60 1014.2
20260905205908 88 36 2.0 2.0 0.00 0.00 0.00 63 1013.9
20260905205403 87 42 9.0 11.0 0.00 0.00 0.00 63 1014.2
20260905204902 88 189 6.0 7.0 0.00 0.00 0.00 61 1014.2
20260905204358 87 86 7.0 8.0 0.00 0.00 0.00 63 1014.2
20260905203857 87 70 6.0 7.0 0.00 0.00 0.00 62 1014.6
20260905203353 87 282 5.0 6.0 0.00 0.00 0.00 61 1014.2
20260905202848 87 82 7.0 8.0 0.00 0.00 0.00 61 1014.6
20260905202349 86 76 6.0 6.0 0.00 0.00 0.00 61 1014.9
20260905201845 86 47 5.0 6.0 0.00 0.00 0.00 60 1014.9
20260905201340 86 73 5.0 5.0 0.00 0.00 0.00 60 1014.9
20260905200839 86 102 5.0 6.0 0.00 0.00 0.00 60 1015.2
20260905200336 86 73 9.0 9.0 0.00 0.00 0.00 60 1015.7
20260905195833 86 66 6.0 7.0 0.00 0.00 0.00 61 1015.7
20260905195329 86 78 8.0 8.0 0.00 0.00 0.00 61 1016.0
20260905194825 86 37 5.0 6.0 0.00 0.00 0.00 62 1016.0
20260905194324 85 138 5.0 5.0 0.00 0.00 0.00 62 1015.7
20260905193824 85 86 7.0 8.0 0.00 0.00 0.00 62 1016.0
20260905193319 86 83 6.0 7.0 0.00 0.00 0.00 62 1016.3
20260905192814 86 56 4.0 4.0 0.00 0.00 0.00 63 1016.3
20260905192310 86 68 7.0 8.0 0.00 0.00 0.00 61 1016.3
20260905191809 85 70 6.0 7.0 0.00 0.00 0.00 61 1016.3
20260905191308 85 3 5.0 6.0 0.00 0.00 0.00 58 1016.3
20260905190807 85 61 9.0 9.0 0.00 0.00 0.00 58 1016.3
20260905190301 85 54 7.0 8.0 0.00 0.00 0.00 57 1016.3
20260905185800 85 35 6.0 7.0 0.00 0.00 0.00 57 1016.7
20260905185255 85 44 7.0 7.0 0.00 0.00 0.00 56 1016.7
20260905184754 85 19 5.0 5.0 0.00 0.00 0.00 57 1017.0
20260905184253 85 94 6.0 6.0 0.00 0.00 0.00 59 1016.7
20260905183753 85 71 4.0 4.0 0.00 0.00 0.00 61 1017.0
20260905183249 85 288 4.0 4.0 0.00 0.00 0.00 60 1017.0
20260905182748 85 301 6.0 7.0 0.00 0.00 0.00 60 1017.4
20260905182247 85 81 5.0 5.0 0.00 0.00 0.00 60 1017.4
20260905181743 84 40 6.0 7.0 0.00 0.00 0.00 58 1017.0
20260905181242 85 30 9.0 11.0 0.00 0.00 0.00 57 1017.4
20260905180737 85 342 4.0 5.0 0.00 0.00 0.00 60 1017.4